Location: Innerarity Island Observatory
(30.3139°N, 87.4867°W)
Time: 23:43:57
(UTC-05:00)

OPAL - Visible Passes

Search period start: 26 August 2016 00:00
Search period end: 05 September 2016 00:00
Orbit: 743 x 796 km, 100.2° (Epoch: 25 August)

Date Brightness Start Highest point End Pass type
(mag) Time Alt. Az. Time Alt. Az. Time Alt. Az.
26 Aug 9.6 03:53:32 10° NNW 03:54:48 16° NNW 03:54:48 16° NNW visible
27 Aug 9.7 03:17:24 10° N 03:18:48 19° N 03:18:48 19° N visible
28 Aug 10.2 02:41:59 10° NNE 02:42:48 15° NNE 02:42:48 15° NNE visible
28 Aug 9.9 04:22:58 10° NW 04:23:05 10° NW 04:23:05 10° NW visible
29 Aug 9.7 03:45:49 10° N 03:47:06 17° NNW 03:47:06 17° NNW visible
30 Aug 9.9 03:09:54 10° N 03:11:06 18° N 03:11:06 18° N visible
31 Aug 10.4 02:34:41 10° NNE 02:35:06 12° NNE 02:35:06 12° NNE visible
31 Aug 9.8 04:14:49 10° NNW 04:15:23 12° NNW 04:15:23 12° NNW visible
01 Sep 9.7 03:38:11 10° N 03:39:23 17° N 03:39:23 17° N visible
02 Sep 10.0 03:02:27 10° NNE 03:03:23 16° NNE 03:03:23 16° NNE visible
03 Sep 9.8 04:06:55 10° NNW 04:07:40 13° NNW 04:07:40 13° NNW visible
04 Sep 9.8 03:30:36 10° N 03:31:40 16° N 03:31:40 16° N visible
